Showing default

GSAT 15, 41028

Orbit data source: Space-Track

GSAT 15, 41028 is a payload satellite owned by ISRO (IN) in GEO that was launched on Tue, 10 Nov 2015 UTC via an ARIANE 5ECA launch vehicle from the French Guiana (FRGUI). Payload-class satellites include a variety of spacecraft equipped with specific instruments for various scientific and technological missions. These include communications satellites like Starlink; space stations such as the ISS; scientific satellites like the Hubble; Earth observation satellites from companies like Planet Labs, Umbra, and HawkEye 360; GPS; miniature CubeSats for education and research; and military/defense satellites.

Not visible in the next 10 days
Identifier
41028, 2015-065A
Orbit
GEO
Country
Flag of ININ / IND
Related business
Manufacturer
ISRO SAC/Banga
Mission
Operational Civil Communications
Bus & Motor
I3K, ISRO LAM
Mass
3,165 kg wet, ~1,200 kg dry
Launch date (UTC)
2015-11-10 (11 years ago)
Launch vehicle
ARIANE 5ECA
Launch site
French Guiana (FRGUI)
Object type
Payload
Rocket body
Debris
Shape & HBR
Box + 2 Pan, 7.8 m
Radar Cross Section
15.451 m², Large (>1 m²)

Expand to show TLE details & history
Last TLE update: 15 hours ago

TLE from 15 hours ago
0 GSAT 15
1 41028U 15065A   26146.10136054 -.00000257  00000-0  00000-0 0  9996
2 41028   0.0020 222.6340 0004070 201.9478 309.0973  1.00273155 38578
Epoch: 2026-05-26T02:25Z
TLE epoch observation values (Epoch: 2026-05-26T02:25:57.550Z)
Latitude
0.00765°
Longitude
93.47437°
Altitude
35,774.822 km
Speed
3.076 km/s
True Right ascension
00h 54m 34s
True Declination
0° 00' 27"
Sunlit
Object was in daylight at epoch
Visualization orbit readout
Latitude
Unknown
Longitude
Unknown
Altitude
Unknown
Speed
Unknown
Apparent Right ascension
Unknown
Apparent Declination
Unknown
Sunlit
N/A
Visualization observer readout
Local Sidereal Time
02:28:30
Azimuth
Unknown
Elevation
Unknown
Doppler factor
Unknown
Orbital elements
Apogee altitude
35,804.443 km
Perigee altitude
35,770.12 km
Semi-major axis
42,165.418 km
Eccentricity
0.00041
Inclination
0.002°
RAAN
222.634°
Arg. of periapsis
201.9478°
True anomaly
309.06109°
Mean anomaly
309.0973°
Eccentric anomaly
309.0792°
Mean motion
0.25067 °/min
Orbital period
1,436.13 mins
BSTAR
0
Loading maneuver chart data...
Computing Atmospheric mass density...
Loading historical data...
Loading historical data...
Loading historical data...
Loading historical data...
Loading historical data...
Loading historical data...
Loading historical data...
Other satellites on launch #65 in the year 2015 (2015-11-10 UTC)

Documentation

Showing up to 5 results
|